Time,TemperatureF,DewpointF,PressureIn,WindDirection,WindDirectionDegrees,WindSpeedMPH,WindSpeedGustMPH,Humidity,HourlyPrecipIn,Conditions,Clouds,dailyrainin,SoftwareType,DateUTC
2013-08-20 00:02:00,74.2,65.8,30.08,South,169,0.0,0.0,75,0.00,,---,0.00,VWS V14.01,2013-08-20 05:02:00,
2013-08-20 00:10:00,74.1,65.7,30.08,SSE,157,0.0,0.0,75,0.00,,---,0.00,VWS V14.01,2013-08-20 05:10:00,
2013-08-20 00:17:00,74.0,65.2,30.08,SSE,163,0.0,0.0,74,0.00,,---,0.00,VWS V14.01,2013-08-20 05:17:00,
2013-08-20 00:25:00,74.0,65.2,30.09,South,175,0.0,0.0,74,0.00,,---,0.00,VWS V14.01,2013-08-20 05:25:00,
2013-08-20 00:32:00,74.0,65.2,30.08,WSW,237,0.0,0.0,74,0.00,,---,0.00,VWS V14.01,2013-08-20 05:32:00,
2013-08-20 00:40:00,74.0,65.2,30.08,SSE,162,0.0,0.0,74,0.00,,---,0.00,VWS V14.01,2013-08-20 05:40:00,
2013-08-20 00:47:00,73.9,65.1,30.09,SSW,204,0.0,0.0,74,0.00,,---,0.00,VWS V14.01,2013-08-20 05:47:00,
2013-08-20 00:55:00,73.7,64.9,30.08,SW,215,0.0,0.0,74,0.00,,---,0.00,VWS V14.01,2013-08-20 05:55:00,
2013-08-20 01:02:00,73.6,64.8,30.08,SW,215,0.0,0.0,74,0.00,,---,0.00,VWS V14.01,2013-08-20 06:02:00,
2013-08-20 01:10:00,73.5,64.7,30.08,South,186,0.0,0.0,74,0.00,,---,0.00,VWS V14.01,2013-08-20 06:10:00,
2013-08-20 01:17:00,73.5,64.7,30.08,SE,138,0.0,0.0,74,0.00,,---,0.00,VWS V14.01,2013-08-20 06:17:00,
2013-08-20 01:25:00,73.5,65.1,30.08,SSE,157,0.0,0.0,75,0.00,,---,0.00,VWS V14.01,2013-08-20 06:25:00,
2013-08-20 01:32:00,73.4,65.0,30.08,South,190,0.0,0.0,75,0.00,,---,0.00,VWS V14.01,2013-08-20 06:32:00,
2013-08-20 01:40:00,73.4,65.0,30.08,WSW,241,0.0,0.0,75,0.00,,---,0.00,VWS V14.01,2013-08-20 06:40:00,
2013-08-20 01:47:00,73.4,65.0,30.08,SSE,167,0.0,0.0,75,0.00,,---,0.00,VWS V14.01,2013-08-20 06:47:00,
2013-08-20 01:55:00,73.3,64.5,30.08,SSE,156,0.0,0.0,74,0.00,,---,0.00,VWS V14.01,2013-08-20 06:55:00,
2013-08-20 02:02:00,73.3,64.5,30.08,SE,136,0.0,0.0,74,0.00,,---,0.00,VWS V14.01,2013-08-20 07:02:00,
2013-08-20 02:10:00,73.1,64.3,30.07,SSE,160,0.0,0.0,74,0.00,,---,0.00,VWS V14.01,2013-08-20 07:10:00,
2013-08-20 02:18:00,73.0,64.2,30.08,SE,144,0.0,0.0,74,0.00,,---,0.00,VWS V14.01,2013-08-20 07:18:00,
2013-08-20 02:25:00,72.9,64.1,30.07,South,179,0.0,0.0,74,0.00,,---,0.00,VWS V14.01,2013-08-20 07:25:00,
2013-08-20 02:33:00,72.8,64.0,30.07,South,182,0.0,0.0,74,0.00,,---,0.00,VWS V14.01,2013-08-20 07:33:00,
2013-08-20 02:40:00,72.6,63.8,30.07,South,170,0.0,0.0,74,0.00,,---,0.00,VWS V14.01,2013-08-20 07:40:00,
2013-08-20 02:48:00,72.5,63.8,30.08,SSE,164,0.0,0.0,74,0.00,,---,0.00,VWS V14.01,2013-08-20 07:48:00,
2013-08-20 02:55:00,72.4,63.7,30.08,SSE,162,0.0,0.0,74,0.00,,---,0.00,VWS V14.01,2013-08-20 07:55:00,
2013-08-20 03:03:00,72.3,63.2,30.08,SW,220,0.0,0.0,73,0.00,,---,0.00,VWS V14.01,2013-08-20 08:03:00,
2013-08-20 03:10:00,72.2,63.5,30.08,SSE,152,0.0,0.0,74,0.00,,---,0.00,VWS V14.01,2013-08-20 08:10:00,
2013-08-20 03:18:00,72.1,63.4,30.08,WSW,237,0.0,0.0,74,0.00,,---,0.00,VWS V14.01,2013-08-20 08:18:00,
2013-08-20 03:25:00,71.9,63.2,30.08,South,188,0.0,0.0,74,0.00,,---,0.00,VWS V14.01,2013-08-20 08:25:00,
2013-08-20 03:33:00,71.9,63.2,30.08,SSE,167,0.0,0.0,74,0.00,,---,0.00,VWS V14.01,2013-08-20 08:33:00,
2013-08-20 03:40:00,71.8,63.5,30.08,SSW,196,0.0,0.0,75,0.00,,---,0.00,VWS V14.01,2013-08-20 08:40:00,
2013-08-20 03:48:00,71.7,63.4,30.08,SSE,159,0.0,0.0,75,0.00,,---,0.00,VWS V14.01,2013-08-20 08:48:00,
2013-08-20 03:55:00,71.7,63.4,30.08,SSW,209,0.0,0.0,75,0.00,,---,0.00,VWS V14.01,2013-08-20 08:55:00,
2013-08-20 04:03:00,71.5,63.2,30.08,South,171,0.0,0.0,75,0.00,,---,0.00,VWS V14.01,2013-08-20 09:03:00,
2013-08-20 04:10:00,71.3,63.3,30.08,South,186,0.0,0.0,76,0.00,,---,0.00,VWS V14.01,2013-08-20 09:10:00,
2013-08-20 04:18:00,71.2,63.3,30.08,SW,225,0.0,0.0,76,0.00,,---,0.00,VWS V14.01,2013-08-20 09:18:00,
2013-08-20 04:25:00,71.2,63.3,30.08,South,188,0.0,0.0,76,0.00,,---,0.00,VWS V14.01,2013-08-20 09:25:00,
2013-08-20 04:33:00,71.0,63.1,30.08,SW,219,0.0,0.0,76,0.00,,---,0.00,VWS V14.01,2013-08-20 09:33:00,
2013-08-20 04:40:00,70.9,63.0,30.08,SW,219,0.0,0.0,76,0.00,,---,0.00,VWS V14.01,2013-08-20 09:40:00,
2013-08-20 04:48:00,70.7,63.1,30.08,SSW,202,0.0,0.0,77,0.00,,---,0.00,VWS V14.01,2013-08-20 09:48:00,
2013-08-20 04:55:00,70.5,63.0,30.08,SSW,194,0.0,0.0,77,0.00,,---,0.00,VWS V14.01,2013-08-20 09:55:00,
2013-08-20 05:03:00,70.4,62.8,30.08,SSW,204,0.0,0.0,77,0.00,,---,0.00,VWS V14.01,2013-08-20 10:03:00,
2013-08-20 05:10:00,70.2,63.0,30.08,SSW,211,0.0,0.0,78,0.00,,---,0.00,VWS V14.01,2013-08-20 10:10:00,
2013-08-20 05:18:00,69.9,62.7,30.09,SSW,211,0.0,0.0,78,0.00,,---,0.00,VWS V14.01,2013-08-20 10:18:00,
2013-08-20 05:25:00,69.7,62.9,30.09,SSW,212,0.0,0.0,79,0.00,,---,0.00,VWS V14.01,2013-08-20 10:25:00,
2013-08-20 05:33:00,69.6,62.8,30.09,South,182,0.0,0.0,79,0.00,,---,0.00,VWS V14.01,2013-08-20 10:33:00,
2013-08-20 05:40:00,69.4,62.6,30.09,SW,216,0.0,0.0,79,0.00,,---,0.00,VWS V14.01,2013-08-20 10:40:00,
2013-08-20 05:48:00,69.4,63.0,30.09,SW,218,0.0,0.0,80,0.00,,---,0.00,VWS V14.01,2013-08-20 10:48:00,
2013-08-20 05:55:00,69.3,62.9,30.10,SW,219,0.0,0.0,80,0.00,,---,0.00,VWS V14.01,2013-08-20 10:55:00,
2013-08-20 06:03:00,69.1,62.7,30.10,SW,219,0.0,0.0,80,0.00,,---,0.00,VWS V14.01,2013-08-20 11:03:00,
2013-08-20 06:10:00,69.0,62.6,30.10,SW,218,0.0,0.0,80,0.00,,---,0.00,VWS V14.01,2013-08-20 11:10:00,
2013-08-20 06:18:00,68.8,62.7,30.11,SW,219,0.0,0.0,81,0.00,,---,0.00,VWS V14.01,2013-08-20 11:18:00,
2013-08-20 06:25:00,68.6,62.5,30.11,SW,219,0.0,0.0,81,0.00,,---,0.00,VWS V14.01,2013-08-20 11:25:00,
2013-08-20 06:33:00,68.5,62.5,30.11,SW,219,0.0,0.0,81,0.00,,---,0.00,VWS V14.01,2013-08-20 11:33:00,
2013-08-20 06:40:00,68.5,62.8,30.11,SW,219,0.0,0.0,82,0.00,,---,0.00,VWS V14.01,2013-08-20 11:40:00,
2013-08-20 06:48:00,68.5,62.8,30.11,SSE,157,0.0,0.0,82,0.00,,---,0.00,VWS V14.01,2013-08-20 11:48:00,
2013-08-20 06:55:00,68.8,63.1,30.11,SSE,159,0.0,0.0,82,0.00,,---,0.00,VWS V14.01,2013-08-20 11:55:00,
2013-08-20 07:03:00,69.6,63.2,30.12,SSE,160,0.0,0.0,80,0.00,,---,0.00,VWS V14.01,2013-08-20 12:03:00,
2013-08-20 07:11:00,70.5,63.7,30.12,South,175,0.0,0.0,79,0.00,,---,0.00,VWS V14.01,2013-08-20 12:11:00,
2013-08-20 07:18:00,71.4,63.8,30.12,SSE,155,0.0,0.0,77,0.00,,---,0.00,VWS V14.01,2013-08-20 12:18:00,
2013-08-20 07:26:00,72.2,63.8,30.12,South,179,0.0,0.0,75,0.00,,---,0.00,VWS V14.01,2013-08-20 12:26:00,
2013-08-20 07:33:00,73.1,64.3,30.12,SW,227,0.0,0.0,74,0.00,,---,0.00,VWS V14.01,2013-08-20 12:33:00,
2013-08-20 07:41:00,73.8,64.2,30.12,SW,230,0.0,0.0,72,0.00,,---,0.00,VWS V14.01,2013-08-20 12:41:00,
2013-08-20 07:48:00,74.1,64.5,30.12,WSW,251,0.0,0.0,72,0.00,,---,0.00,VWS V14.01,2013-08-20 12:48:00,
2013-08-20 07:56:00,74.8,64.4,30.12,SSW,210,0.0,0.0,70,0.00,,---,0.00,VWS V14.01,2013-08-20 12:56:00,
2013-08-20 08:03:00,75.3,64.8,30.13,SSW,196,0.0,0.0,70,0.00,,---,0.00,VWS V14.01,2013-08-20 13:03:00,
2013-08-20 08:11:00,75.8,65.3,30.12,WSW,256,0.0,0.0,70,0.00,,---,0.00,VWS V14.01,2013-08-20 13:11:00,
2013-08-20 08:18:00,76.4,65.5,30.13,WSW,243,0.0,0.0,69,0.00,,---,0.00,VWS V14.01,2013-08-20 13:18:00,
2013-08-20 08:26:00,76.8,65.4,30.13,South,178,0.0,0.0,68,0.00,,---,0.00,VWS V14.01,2013-08-20 13:26:00,
2013-08-20 08:33:00,77.3,65.9,30.13,SSW,208,0.0,0.0,68,0.00,,---,0.00,VWS V14.01,2013-08-20 13:33:00,
2013-08-20 08:41:00,77.5,66.1,30.13,SSE,165,0.0,0.0,68,0.00,,---,0.00,VWS V14.01,2013-08-20 13:41:00,
2013-08-20 08:48:00,78.0,66.2,30.13,SSW,213,0.0,0.0,67,0.00,,---,0.00,VWS V14.01,2013-08-20 13:48:00,
2013-08-20 08:56:00,78.3,66.4,30.14,South,183,0.0,0.0,67,0.00,,---,0.00,VWS V14.01,2013-08-20 13:56:00,
2013-08-20 09:03:00,78.2,66.4,30.13,SW,214,0.0,0.0,67,0.00,,---,0.00,VWS V14.01,2013-08-20 14:03:00,
2013-08-20 09:11:00,78.5,66.6,30.14,SSW,192,0.0,0.0,67,0.00,,---,0.00,VWS V14.01,2013-08-20 14:11:00,
2013-08-20 09:18:00,78.8,66.9,30.14,SSW,202,0.0,0.0,67,0.00,,---,0.00,VWS V14.01,2013-08-20 14:18:00,
2013-08-20 09:26:00,79.5,67.2,30.14,South,178,0.0,0.0,66,0.00,,---,0.00,VWS V14.01,2013-08-20 14:26:00,
2013-08-20 09:33:00,79.4,67.1,30.14,SSE,148,0.0,0.0,66,0.00,,---,0.00,VWS V14.01,2013-08-20 14:33:00,
2013-08-20 09:41:00,79.8,67.4,30.14,WSW,238,0.0,0.0,66,0.00,,---,0.00,VWS V14.01,2013-08-20 14:41:00,
2013-08-20 09:48:00,79.9,68.0,30.14,SW,227,0.0,0.0,67,0.00,,---,0.00,VWS V14.01,2013-08-20 14:48:00,
2013-08-20 09:56:00,80.5,68.1,30.14,SSW,211,0.0,0.0,66,0.00,,---,0.00,VWS V14.01,2013-08-20 14:56:00,
2013-08-20 10:03:00,80.5,68.1,30.14,WSW,250,0.0,0.0,66,0.00,,---,0.00,VWS V14.01,2013-08-20 15:03:00,
2013-08-20 10:11:00,80.7,68.3,30.14,South,175,0.0,0.0,66,0.00,,---,0.00,VWS V14.01,2013-08-20 15:11:00,
2013-08-20 10:18:00,81.0,68.1,30.14,WSW,252,0.0,0.0,65,0.00,,---,0.00,VWS V14.01,2013-08-20 15:18:00,
2013-08-20 10:26:00,80.8,68.4,30.13,SW,218,0.0,0.0,66,0.00,,---,0.00,VWS V14.01,2013-08-20 15:26:00,
2013-08-20 10:33:00,81.1,68.7,30.14,SW,223,0.0,0.0,66,0.00,,---,0.00,VWS V14.01,2013-08-20 15:33:00,
2013-08-20 10:41:00,81.8,68.4,30.14,WSW,240,0.0,0.0,64,0.00,,---,0.00,VWS V14.01,2013-08-20 15:41:00,
2013-08-20 10:48:00,82.7,68.4,30.14,SSE,165,0.0,0.0,62,0.00,,---,0.00,VWS V14.01,2013-08-20 15:48:00,
2013-08-20 10:56:00,82.7,68.8,30.13,WSW,239,0.0,0.0,63,0.00,,---,0.00,VWS V14.01,2013-08-20 15:56:00,
2013-08-20 11:03:00,83.1,67.8,30.13,SSE,152,0.0,0.0,60,0.00,,---,0.00,VWS V14.01,2013-08-20 16:03:00,
2013-08-20 11:11:00,82.8,68.0,30.13,South,180,0.0,0.0,61,0.00,,---,0.00,VWS V14.01,2013-08-20 16:11:00,
2013-08-20 11:18:00,83.4,67.6,30.13,SSW,199,0.0,0.0,59,0.00,,---,0.00,VWS V14.01,2013-08-20 16:18:00,
2013-08-20 11:26:00,83.3,67.0,30.13,SW,225,0.0,0.0,58,0.00,,---,0.00,VWS V14.01,2013-08-20 16:26:00,
2013-08-20 11:34:00,82.9,67.6,30.12,SW,221,0.0,0.0,60,0.00,,---,0.00,VWS V14.01,2013-08-20 16:34:00,
2013-08-20 11:41:00,83.9,67.6,30.12,SSE,157,0.0,0.0,58,0.00,,---,0.00,VWS V14.01,2013-08-20 16:41:00,
2013-08-20 11:49:00,84.4,67.5,30.13,SSE,168,0.0,0.0,57,0.00,,---,0.00,VWS V14.01,2013-08-20 16:49:00,
2013-08-20 11:56:00,84.9,66.9,30.13,SSE,156,0.0,0.0,55,0.00,,---,0.00,VWS V14.01,2013-08-20 16:56:00,
2013-08-20 12:04:00,84.8,67.4,30.12,SSE,161,0.0,0.0,56,0.00,,---,0.00,VWS V14.01,2013-08-20 17:04:00,
2013-08-20 12:11:00,84.8,67.4,30.12,South,188,0.0,0.0,56,0.00,,---,0.00,VWS V14.01,2013-08-20 17:11:00,
2013-08-20 12:19:00,84.9,67.5,30.12,West,269,0.0,0.0,56,0.00,,---,0.00,VWS V14.01,2013-08-20 17:19:00,
2013-08-20 12:26:00,85.2,66.7,30.12,SSW,194,0.0,0.0,54,0.00,,---,0.00,VWS V14.01,2013-08-20 17:26:00,
2013-08-20 12:34:00,85.5,67.5,30.11,SSW,211,0.0,0.0,55,0.00,,---,0.00,VWS V14.01,2013-08-20 17:34:00,
2013-08-20 12:41:00,85.0,67.6,30.11,South,176,0.0,0.0,56,0.00,,---,0.00,VWS V14.01,2013-08-20 17:41:00,
2013-08-20 12:49:00,85.5,68.0,30.11,SSE,167,0.0,0.0,56,0.00,,---,0.00,VWS V14.01,2013-08-20 17:49:00,
2013-08-20 12:56:00,86.0,67.4,30.11,SW,227,0.0,0.0,54,0.00,,---,0.00,VWS V14.01,2013-08-20 17:56:00,
2013-08-20 13:04:00,86.1,68.1,30.10,WNW,283,0.0,0.0,55,0.00,,---,0.00,VWS V14.01,2013-08-20 18:04:00,
2013-08-20 13:11:00,86.5,67.3,30.10,SE,135,0.0,0.0,53,0.00,,---,0.00,VWS V14.01,2013-08-20 18:11:00,
2013-08-20 13:19:00,86.4,67.3,30.10,SSE,148,0.0,0.0,53,0.00,,---,0.00,VWS V14.01,2013-08-20 18:19:00,
2013-08-20 13:26:00,86.7,66.4,30.10,WNW,290,0.0,0.0,51,0.00,,---,0.00,VWS V14.01,2013-08-20 18:26:00,
2013-08-20 13:34:00,86.3,67.2,30.10,SW,218,0.0,0.0,53,0.00,,---,0.00,VWS V14.01,2013-08-20 18:34:00,
2013-08-20 13:41:00,86.9,67.7,30.10,WSW,245,0.0,0.0,53,0.00,,---,0.00,VWS V14.01,2013-08-20 18:41:00,
2013-08-20 13:49:00,86.7,67.5,30.09,SSW,213,0.0,0.0,53,0.00,,---,0.00,VWS V14.01,2013-08-20 18:49:00,
2013-08-20 13:56:00,86.8,66.5,30.09,SE,140,0.0,0.0,51,0.00,,---,0.00,VWS V14.01,2013-08-20 18:56:00,
2013-08-20 14:04:00,87.3,67.5,30.09,SE,141,0.0,0.0,52,0.00,,---,0.00,VWS V14.01,2013-08-20 19:04:00,
2013-08-20 14:11:00,86.9,66.6,30.09,South,173,0.0,0.0,51,0.00,,---,0.00,VWS V14.01,2013-08-20 19:11:00,
2013-08-20 14:19:00,86.2,67.1,30.09,West,264,0.0,0.0,53,0.00,,---,0.00,VWS V14.01,2013-08-20 19:19:00,
2013-08-20 14:26:00,86.2,67.6,30.09,SSE,155,0.0,0.0,54,0.00,,---,0.00,VWS V14.01,2013-08-20 19:26:00,
2013-08-20 14:34:00,86.4,67.3,30.08,SSE,168,0.0,0.0,53,0.00,,---,0.00,VWS V14.01,2013-08-20 19:34:00,
2013-08-20 14:41:00,87.1,66.2,30.08,West,271,0.0,0.0,50,0.00,,---,0.00,VWS V14.01,2013-08-20 19:41:00,
2013-08-20 14:49:00,87.2,67.4,30.08,SW,219,0.0,0.0,52,0.00,,---,0.00,VWS V14.01,2013-08-20 19:49:00,
2013-08-20 14:56:00,87.5,66.6,30.08,SW,214,0.0,0.0,50,0.00,,---,0.00,VWS V14.01,2013-08-20 19:56:00,
2013-08-20 15:04:00,88.0,67.1,30.08,SSE,148,0.0,0.0,50,0.00,,---,0.00,VWS V14.01,2013-08-20 20:04:00,
2013-08-20 15:11:00,88.4,66.8,30.07,West,268,0.0,0.0,49,0.00,,---,0.00,VWS V14.01,2013-08-20 20:11:00,
2013-08-20 15:19:00,87.7,66.8,30.07,SSW,205,0.0,0.0,50,0.00,,---,0.00,VWS V14.01,2013-08-20 20:19:00,
2013-08-20 15:26:00,87.7,67.3,30.07,WSW,240,0.0,0.0,51,0.00,,---,0.00,VWS V14.01,2013-08-20 20:26:00,
2013-08-20 15:34:00,88.2,67.2,30.07,WSW,240,0.0,0.0,50,0.00,,---,0.00,VWS V14.01,2013-08-20 20:34:00,
2013-08-20 15:49:00,88.6,67.0,30.07,West,259,0.0,0.0,49,0.00,,---,0.00,VWS V14.01,2013-08-20 20:49:00,
2013-08-20 15:56:00,89.1,68.1,30.07,SE,135,0.0,0.0,50,0.00,,---,0.00,VWS V14.01,2013-08-20 20:56:00,
2013-08-20 16:04:00,89.4,67.1,30.06,WSW,252,0.0,0.0,48,0.00,,---,0.00,VWS V14.01,2013-08-20 21:04:00,
2013-08-20 16:11:00,88.5,66.9,30.06,NW,305,0.0,0.0,49,0.00,,---,0.00,VWS V14.01,2013-08-20 21:11:00,
2013-08-20 16:19:00,88.6,67.0,30.06,South,169,0.0,0.0,49,0.00,,---,0.00,VWS V14.01,2013-08-20 21:19:00,
2013-08-20 16:26:00,88.9,66.7,30.06,SSW,194,0.0,0.0,48,0.00,,---,0.00,VWS V14.01,2013-08-20 21:26:00,
2013-08-20 16:34:00,88.3,67.3,30.06,SE,144,0.0,0.0,50,0.00,,---,0.00,VWS V14.01,2013-08-20 21:34:00,
2013-08-20 16:41:00,88.3,67.3,30.06,SSW,213,0.0,0.0,50,0.00,,---,0.00,VWS V14.01,2013-08-20 21:41:00,
2013-08-20 16:49:00,88.5,66.3,30.06,South,182,0.0,0.0,48,0.00,,---,0.00,VWS V14.01,2013-08-20 21:49:00,
2013-08-20 16:56:00,88.8,67.2,30.06,SSW,211,0.0,0.0,49,0.00,,---,0.00,VWS V14.01,2013-08-20 21:56:00,
2013-08-20 17:04:00,88.0,66.5,30.06,SSW,209,0.0,0.0,49,0.00,,---,0.00,VWS V14.01,2013-08-20 22:04:00,
2013-08-20 17:11:00,88.0,66.5,30.06,WSW,254,0.0,0.0,49,0.00,,---,0.00,VWS V14.01,2013-08-20 22:11:00,
2013-08-20 17:19:00,88.1,66.6,30.06,SSW,205,0.0,0.0,49,0.00,,---,0.00,VWS V14.01,2013-08-20 22:19:00,
2013-08-20 17:26:00,88.3,66.7,30.06,South,169,0.0,0.0,49,0.00,,---,0.00,VWS V14.01,2013-08-20 22:26:00,
2013-08-20 17:34:00,88.8,67.2,30.06,SSE,165,0.0,0.0,49,0.00,,---,0.00,VWS V14.01,2013-08-20 22:34:00,
2013-08-20 17:41:00,88.7,67.1,30.05,South,171,0.0,0.0,49,0.00,,---,0.00,VWS V14.01,2013-08-20 22:41:00,
2013-08-20 17:49:00,88.5,67.5,30.05,WSW,258,0.0,0.0,50,0.00,,---,0.00,VWS V14.01,2013-08-20 22:49:00,
2013-08-20 17:56:00,87.9,67.5,30.05,WSW,237,0.0,0.0,51,0.00,,---,0.00,VWS V14.01,2013-08-20 22:56:00,
2013-08-20 18:04:00,87.6,67.2,30.05,SSE,162,0.0,0.0,51,0.00,,---,0.00,VWS V14.01,2013-08-20 23:04:00,
2013-08-20 18:11:00,87.6,67.2,30.05,SSW,203,0.0,0.0,51,0.00,,---,0.00,VWS V14.01,2013-08-20 23:11:00,
2013-08-20 18:19:00,87.7,67.3,30.05,West,266,0.0,0.0,51,0.00,,---,0.00,VWS V14.01,2013-08-20 23:19:00,
2013-08-20 18:26:00,87.3,66.4,30.05,WSW,244,0.0,0.0,50,0.00,,---,0.00,VWS V14.01,2013-08-20 23:26:00,
2013-08-20 18:34:00,86.6,66.9,30.05,SSW,204,0.0,0.0,52,0.00,,---,0.00,VWS V14.01,2013-08-20 23:34:00,
2013-08-20 18:41:00,86.2,67.1,30.05,South,185,0.0,0.0,53,0.00,,---,0.00,VWS V14.01,2013-08-20 23:41:00,
2013-08-20 18:50:00,85.7,67.2,30.05,SW,232,0.0,0.0,54,0.00,,---,0.00,VWS V14.01,2013-08-20 23:50:00,
2013-08-20 18:56:00,85.5,67.0,30.05,South,171,0.0,0.0,54,0.00,,---,0.00,VWS V14.01,2013-08-20 23:56:00,
2013-08-20 19:05:00,84.7,66.8,30.06,SSW,201,0.0,0.0,55,0.00,,---,0.00,VWS V14.01,2013-08-21 00:05:00,
2013-08-20 19:11:00,84.0,66.6,30.06,WSW,247,0.0,0.0,56,0.00,,---,0.00,VWS V14.01,2013-08-21 00:11:00,
2013-08-20 19:20:00,83.5,66.7,30.06,SW,234,0.0,0.0,57,0.00,,---,0.00,VWS V14.01,2013-08-21 00:20:00,
2013-08-20 19:26:00,83.3,67.0,30.06,SSW,202,0.0,0.0,58,0.00,,---,0.00,VWS V14.01,2013-08-21 00:26:00,
2013-08-20 19:35:00,82.9,67.6,30.06,SW,215,0.0,0.0,60,0.00,,---,0.00,VWS V14.01,2013-08-21 00:35:00,
2013-08-20 19:41:00,82.5,67.7,30.06,SSW,200,0.0,0.0,61,0.00,,---,0.00,VWS V14.01,2013-08-21 00:41:00,
2013-08-20 19:50:00,82.1,68.3,30.06,SSE,168,0.0,0.0,63,0.00,,---,0.00,VWS V14.01,2013-08-21 00:50:00,
2013-08-20 19:56:00,81.8,68.0,30.06,SSW,204,0.0,0.0,63,0.00,,---,0.00,VWS V14.01,2013-08-21 00:56:00,
2013-08-20 20:05:00,81.3,67.5,30.06,SSW,212,0.0,0.0,63,0.00,,---,0.00,VWS V14.01,2013-08-21 01:05:00,
2013-08-20 20:11:00,81.1,67.8,30.06,SSE,167,0.0,0.0,64,0.00,,---,0.00,VWS V14.01,2013-08-21 01:11:00,
2013-08-20 20:20:00,80.8,67.9,30.06,SSE,161,0.0,0.0,65,0.00,,---,0.00,VWS V14.01,2013-08-21 01:20:00,
2013-08-20 20:26:00,80.6,68.2,30.06,South,173,0.0,0.0,66,0.00,,---,0.00,VWS V14.01,2013-08-21 01:26:00,
2013-08-20 20:35:00,80.2,67.8,30.06,SSE,158,0.0,0.0,66,0.00,,---,0.00,VWS V14.01,2013-08-21 01:35:00,
2013-08-20 20:41:00,80.0,67.6,30.06,SSE,165,0.0,0.0,66,0.00,,---,0.00,VWS V14.01,2013-08-21 01:41:00,
2013-08-20 20:50:00,79.8,67.4,30.06,South,183,0.0,0.0,66,0.00,,---,0.00,VWS V14.01,2013-08-21 01:50:00,
2013-08-20 20:56:00,79.6,67.7,30.07,SSE,155,0.0,0.0,67,0.00,,---,0.00,VWS V14.01,2013-08-21 01:56:00,
2013-08-20 21:05:00,79.5,67.6,30.07,SSE,155,0.0,0.0,67,0.00,,---,0.00,VWS V14.01,2013-08-21 02:05:00,
2013-08-20 21:11:00,79.4,67.5,30.07,SSE,155,0.0,0.0,67,0.00,,---,0.00,VWS V14.01,2013-08-21 02:11:00,
2013-08-20 21:20:00,79.2,67.3,30.07,SSE,155,0.0,0.0,67,0.00,,---,0.00,VWS V14.01,2013-08-21 02:20:00,
2013-08-20 21:26:00,79.1,67.2,30.07,SSE,159,0.0,0.0,67,0.00,,---,0.00,VWS V14.01,2013-08-21 02:26:00,
2013-08-20 21:35:00,78.9,67.0,30.07,SSE,158,0.0,0.0,67,0.00,,---,0.00,VWS V14.01,2013-08-21 02:35:00,
2013-08-20 21:41:00,78.8,66.9,30.07,SSE,161,0.0,0.0,67,0.00,,---,0.00,VWS V14.01,2013-08-21 02:41:00,
2013-08-20 21:50:00,78.5,67.1,30.07,SSE,164,0.0,0.0,68,0.00,,---,0.00,VWS V14.01,2013-08-21 02:50:00,
2013-08-20 21:56:00,78.2,67.2,30.08,SSE,160,0.0,0.0,69,0.00,,---,0.00,VWS V14.01,2013-08-21 02:56:00,
2013-08-20 22:05:00,77.9,67.3,30.08,SSE,163,0.0,0.0,70,0.00,,---,0.00,VWS V14.01,2013-08-21 03:05:00,
2013-08-20 22:11:00,77.7,67.1,30.08,SSE,152,0.0,0.0,70,0.00,,---,0.00,VWS V14.01,2013-08-21 03:11:00,
2013-08-20 22:20:00,77.5,67.4,30.08,SSE,159,0.0,0.0,71,0.00,,---,0.00,VWS V14.01,2013-08-21 03:20:00,
2013-08-20 22:26:00,77.3,67.2,30.08,SSE,153,0.0,0.0,71,0.00,,---,0.00,VWS V14.01,2013-08-21 03:26:00,
2013-08-20 22:35:00,77.1,67.0,30.09,South,170,0.0,0.0,71,0.00,,---,0.00,VWS V14.01,2013-08-21 03:35:00,
2013-08-20 22:41:00,76.9,67.2,30.09,SE,144,0.0,0.0,72,0.00,,---,0.00,VWS V14.01,2013-08-21 03:41:00,
2013-08-20 22:50:00,76.7,67.0,30.08,SSE,155,0.0,0.0,72,0.00,,---,0.00,VWS V14.01,2013-08-21 03:50:00,
2013-08-20 22:56:00,76.5,66.8,30.08,South,171,0.0,0.0,72,0.00,,---,0.00,VWS V14.01,2013-08-21 03:56:00,
2013-08-20 23:05:00,76.3,67.0,30.08,South,173,0.0,0.0,73,0.00,,---,0.00,VWS V14.01,2013-08-21 04:05:00,
2013-08-20 23:11:00,76.2,66.9,30.08,SSE,154,0.0,0.0,73,0.00,,---,0.00,VWS V14.01,2013-08-21 04:11:00,
2013-08-20 23:12:00,76.2,66.9,30.08,SSE,159,0.0,0.0,73,0.00,,---,0.00,VWS V14.01,2013-08-21 04:12:00,
2013-08-20 23:20:00,76.1,66.8,30.08,SSE,162,0.0,0.0,73,0.00,,---,0.00,VWS V14.01,2013-08-21 04:20:00,
2013-08-20 23:26:00,76.0,66.7,30.08,SSE,158,0.0,0.0,73,0.00,,---,0.00,VWS V14.01,2013-08-21 04:26:00,
2013-08-20 23:35:00,75.9,67.0,30.08,South,172,0.0,0.0,74,0.00,,---,0.00,VWS V14.01,2013-08-21 04:35:00,
2013-08-20 23:41:00,75.8,66.9,30.08,SSE,147,0.0,0.0,74,0.00,,---,0.00,VWS V14.01,2013-08-21 04:41:00,
2013-08-20 23:50:00,75.6,67.1,30.08,SE,142,0.0,0.0,75,0.00,,---,0.00,VWS V14.01,2013-08-21 04:50:00,
2013-08-20 23:56:00,75.4,66.9,30.08,South,171,0.0,0.0,75,0.00,,---,0.00,VWS V14.01,2013-08-21 04:56:00,